GFSMA_700_rhum_024.txt.gz
RH
49 58 61 61 70 69 69 69 67 66 64 65 63 59 56 46 38 33 41 50 41 35 33 27 27 26 25 22 19 29 38 40 41 38 35 33 31 38 43 43 72 95 98
63 65 65 69 74 79 80 76 68 65 67 65 62 58 56 46 36 34 31 31 33 30 29 24 24 26 28 26 25 19 22 34 40 41 42 39 35 32 29 29 38 76 93
68 74 83 85 77 89 90 83 84 81 78 70 69 58 54 50 46 45 44 40 33 30 26 24 20 21 25 28 27 26 22 19 26 36 41 41 41 41 36 32 31 39 69
78 84 83 96 92 99 99 91 82 79 76 65 50 46 45 46 48 49 48 47 46 43 34 28 25 19 17 22 28 28 26 23 20 24 28 37 42 42 42 41 36 43 62
97 99 97 99 100 96 81 85 88 84 66 53 44 37 38 47 49 48 47 46 45 46 45 39 33 31 26 21 23 28 29 25 23 20 21 25 29 38 42 41 42 39 60
99 82 98 85 77 71 72 73 72 58 42 32 25 24 32 42 41 38 36 38 40 40 39 39 38 38 36 34 29 29 33 30 27 24 22 21 23 27 32 42 46 44 41
80 77 70 75 71 64 65 58 39 45 63 62 49 31 32 36 34 30 26 25 23 22 21 24 29 35 37 38 40 40 36 37 33 30 26 30 31 25 27 31 42 48 44
55 51 47 46 45 42 35 40 29 54 79 68 48 40 36 29 30 26 22 19 18 16 14 11 10 10 15 26 34 42 46 43 42 35 30 24 24 38 24 25 31 42 51
36 32 28 24 18 17 24 29 26 29 35 43 38 36 32 30 27 23 21 17 14 12 11 10 8 8 8 7 8 13 26 44 49 47 40 30 22 22 39 51 42 33 39
34 28 25 31 36 39 23 23 25 41 49 47 48 44 38 35 29 29 26 23 21 18 15 16 15 12 8 7 7 7 6 10 29 50 49 42 29 25 21 50 72 56 40
34 48 44 33 19 19 34 42 44 43 45 61 65 62 55 55 39 29 25 22 18 18 18 15 20 28 19 8 8 8 8 6 6 16 42 43 32 27 30 58 81 67 60
27 20 15 13 16 23 18 28 40 53 82 78 75 74 68 51 34 25 25 29 36 43 56 50 56 74 66 52 41 34 42 37 22 10 13 38 37 42 83 66 60 63 82
10 9 9 9 10 17 34 44 86 85 74 68 68 58 50 41 33 27 24 20 21 21 53 83 74 74 95 87 82 80 74 72 67 45 19 15 29 35 78 94 84 52 59
8 8 10 14 15 26 49 72 84 76 77 62 58 44 36 28 16 14 17 19 11 13 17 80 99 100 98 98 97 92 91 89 85 74 60 31 19 25 48 59 64 99 50
10 18 19 33 42 49 84 93 97 84 90 82 66 44 22 20 20 24 29 52 49 26 13 11 14 49 86 94 97 99 100 95 86 81 73 63 46 27 29 34 60 54 62
15 19 24 23 43 46 55 93 99 95 96 85 74 29 22 22 23 28 34 44 54 57 41 30 24 19 18 20 54 85 96 94 80 62 68 70 63 56 39 43 40 92 100
12 14 18 23 30 41 93 100 98 98 90 88 85 26 26 30 31 33 36 38 41 51 50 39 39 34 31 28 21 17 24 85 89 81 50 51 69 69 66 66 61 50 80
11 13 22 30 42 57 78 84 87 86 91 95 52 26 33 34 34 36 42 48 54 62 67 63 56 52 44 44 44 34 25 23 38 90 73 48 44 61 80 90 80 78 70
12 20 32 44 52 64 91 90 94 97 98 63 28 35 36 36 38 48 56 65 71 74 78 79 64 67 63 58 56 54 45 39 29 26 73 75 48 45 53 97 97 86 100
17 24 38 35 47 79 100 96 97 98 44 29 39 43 41 42 49 60 68 68 71 74 78 77 74 75 77 76 73 69 61 55 43 31 19 20 34 39 50 81 97 99 95
22 32 45 40 66 76 90 92 90 24 28 37 40 41 38 45 63 72 78 83 91 93 95 92 86 89 91 90 90 90 99 71 56 41 30 21 16 27 47 34 94 96 100
28 45 55 64 68 76 81 31 18 26 35 37 39 34 37 60 71 82 86 93 98 100 100 100 100 97 100 99 100 100 100 85 69 61 42 32 23 21 23 28 49 96 95
39 54 65 81 87 72 20 18 22 30 34 34 31 32 50 69 80 84 92 95 98 100 100 100 100 100 98 100 100 98 97 96 81 70 52 36 33 31 51 39 50 70 90
55 64 79 89 50 22 19 20 26 31 30 29 32 37 61 79 87 89 91 91 96 100 100 100 100 100 99 100 100 80 75 82 80 67 62 38 44 39 42 44 38 42 46
65 60 63 30 24 19 20 26 30 32 32 29 35 47 69 85 90 93 95 94 98 100 100 100 100 100 99 99 98 92 78 78 66 62 63 46 44 42 37 32 30 36 62
48 21 20 23 19 21 24 28 31 34 31 30 41 51 75 89 93 96 98 98 98 100 100 100 100 100 100 100 93 84 84 76 64 59 62 56 46 43 38 34 31 28 28

GFSMA_700_rhum_030.txt.gz
RH
68 71 78 82 86 86 85 75 66 65 76 68 47 40 30 27 25 24 24 19 18 18 17 15 14 15 23 26 27 27 26 23 22 23 24 24 39 43 33 30 33 43 63
85 86 87 92 83 75 94 89 59 84 86 63 46 36 33 29 27 23 22 20 14 16 20 17 12 12 12 14 23 29 31 28 23 21 22 25 26 30 44 42 32 32 44
94 98 99 96 82 72 88 92 56 48 53 46 39 34 32 28 23 16 16 12 13 13 20 25 24 15 11 12 12 15 22 31 30 24 20 22 28 61 34 38 44 38 33
99 100 97 90 71 66 52 48 43 43 43 37 30 22 16 12 11 10 10 9 9 9 9 8 14 16 13 11 13 14 15 20 32 33 27 21 21 40 45 55 41 43 45
98 91 75 52 53 46 46 46 42 38 33 24 14 11 10 9 8 7 6 6 6 6 6 6 6 10 8 11 12 16 19 23 27 33 37 32 27 24 30 44 64 49 42
56 46 46 48 50 50 49 43 36 25 13 11 10 9 8 6 4 4 4 4 5 4 6 7 8 10 10 14 15 16 18 21 28 35 36 39 36 32 28 29 36 64 65
51 54 56 55 52 43 36 24 12 10 10 9 7 6 4 4 4 4 3 4 4 4 5 7 12 16 20 20 27 23 19 16 20 25 35 38 39 41 37 32 30 52 57
45 45 45 42 34 23 12 10 10 9 7 6 5 4 4 16 41 82 21 15 17 18 29 40 44 42 40 37 34 30 27 24 18 12 16 24 30 36 42 41 34 33 51
52 47 37 25 13 10 10 9 8 7 5 4 4 4 6 32 15 22 64 79 44 43 46 46 43 38 36 30 23 20 18 20 21 20 15 11 14 19 31 43 45 36 37
43 30 16 10 10 9 8 6 4 4 4 4 4 6 8 13 53 85 98 99 99 47 36 34 34 33 31 22 19 18 17 16 15 16 16 15 12 10 11 22 42 48 40
22 11 11 10 9 7 5 4 4 4 5 5 8 13 35 64 93 100 100 100 89 85 93 28 23 16 12 9 11 13 16 18 20 18 13 11 11 13 9 8 13 41 50
12 13 13 10 7 5 5 5 5 7 20 19 26 41 86 100 100 100 100 99 62 27 63 47 61 50 10 8 26 14 14 33 38 41 58 69 26 13 12 8 7 10 43
18 14 10 7 6 6 6 7 8 76 96 83 73 75 97 90 99 98 100 100 90 15 32 87 97 100 91 36 15 13 10 31 46 51 68 81 90 64 27 15 8 7 14
16 10 7 6 6 6 6 8 33 82 88 70 64 100 94 95 98 85 89 100 61 22 29 68 94 75 42 65 51 16 18 11 19 64 85 87 95 94 79 49 28 15 12
10 8 7 6 6 6 8 40 80 81 75 50 77 95 91 98 90 82 94 100 98 43 21 42 59 87 76 50 40 32 23 18 15 12 72 95 93 96 100 90 67 41 20
10 8 6 6 6 8 10 76 43 76 98 82 95 94 90 84 91 100 100 100 100 100 55 43 88 100 100 82 56 45 40 34 27 21 15 31 80 93 95 97 86 71 44
10 8 6 6 8 10 15 46 66 86 51 79 96 98 83 78 63 69 78 84 100 100 100 35 59 80 73 71 60 54 48 45 60 39 27 20 18 50 90 96 91 80 70
9 8 7 8 9 12 22 61 52 62 73 95 93 85 62 27 25 31 36 38 50 50 69 60 62 67 69 68 68 64 65 62 61 100 100 60 27 17 36 83 83 74 72
9 8 9 10 12 18 32 48 56 70 97 94 84 31 21 26 27 26 27 31 43 61 74 78 71 80 80 82 75 81 86 100 86 91 81 70 54 30 16 18 67 68 58
10 10 11 13 15 29 49 66 85 87 90 56 19 21 26 28 28 26 28 40 62 77 83 88 88 89 88 94 100 100 100 100 100 100 100 100 98 44 28 15 14 62 61
12 12 13 17 25 46 59 75 86 68 23 19 21 25 28 27 27 26 33 54 76 86 90 93 94 100 100 100 100 100 100 100 100 100 100 100 100 95 92 34 18 13 52
13 14 21 27 39 51 34 33 24 22 19 20 25 27 27 24 24 27 42 73 90 88 87 99 100 100 100 100 100 100 98 100 100 100 97 100 100 100 100 100 78 12 13
16 20 31 36 53 46 18 18 22 20 20 25 26 26 25 25 26 36 57 86 77 83 82 93 98 100 100 100 100 99 100 99 96 100 100 96 100 99 98 96 40 20 13
21 30 39 47 65 44 18 22 20 20 23 26 27 26 27 29 34 48 74 77 69 74 54 94 100 98 100 97 100 100 100 100 97 98 100 97 99 99 96 58 38 24 15
25 39 43 61 72 38 20 23 21 21 24 27 26 26 31 35 41 57 81 78 62 57 53 99 92 86 92 97 100 100 99 100 100 100 100 99 100 86 91 62 41 25 18
30 44 50 74 70 27 21 26 23 22 25 27 25 26 31 36 45 64 83 89 74 51 60 94 88 88 92 98 100 100 100 100 97 92 100 100 100 100 95 54 40 28 27

GFSMA_700_rhum_036.txt.gz
RH
60 67 63 87 83 82 96 88 80 78 45 36 36 34 32 31 26 18 14 14 13 12 12 11 10 10 9 9 9 10 13 15 13 12 16 18 26 30 25 24 24 23 25
59 73 63 98 96 94 90 68 55 41 41 38 37 34 27 19 16 15 15 14 13 12 12 12 10 10 9 8 8 7 7 8 10 13 12 14 16 20 26 24 24 24 30
72 75 82 92 98 85 50 40 41 42 42 35 27 22 20 22 22 20 16 12 12 12 11 10 10 10 8 8 8 8 7 6 5 6 7 10 12 13 16 22 19 24 26
74 87 85 72 50 41 40 38 34 34 30 28 27 25 28 26 23 17 14 10 10 12 13 11 11 10 9 8 8 7 7 6 6 5 5 5 6 10 12 16 23 20 23
87 70 40 39 43 40 37 35 35 34 31 30 31 30 28 22 17 14 10 10 16 19 20 19 16 12 9 9 8 7 7 6 6 6 6 6 5 6 12 16 22 30 26
48 40 42 47 43 42 44 41 40 41 37 32 28 23 20 17 14 10 10 20 18 21 26 26 20 14 11 10 8 11 9 7 8 7 6 6 5 6 10 16 21 28 34
44 50 54 54 51 52 50 45 45 40 32 26 21 19 17 14 12 10 10 14 28 38 47 48 36 40 27 18 18 25 19 15 19 21 19 18 15 11 11 16 20 26 36
58 63 67 69 63 59 53 45 42 34 23 18 16 16 14 12 9 9 11 17 42 63 89 94 82 79 72 48 35 27 30 29 27 25 26 25 25 24 20 16 23 20 25
70 71 74 68 59 56 46 42 29 18 18 15 12 10 8 8 7 10 10 14 31 62 64 59 65 86 87 54 27 34 22 23 19 18 18 20 27 29 27 24 22 27 20
75 78 73 57 55 51 43 24 17 16 14 10 8 7 6 10 20 13 25 20 22 46 67 67 63 59 54 43 28 22 40 27 16 13 10 11 19 21 20 24 21 22 25
85 78 69 60 52 42 22 18 16 14 10 8 7 7 20 39 83 84 63 37 32 58 56 68 60 57 52 42 47 70 78 57 29 20 16 14 11 9 10 15 18 20 16
97 81 64 50 38 20 16 16 12 9 7 7 12 21 82 94 100 96 93 68 63 48 50 56 51 29 41 68 78 96 100 95 91 71 28 16 13 10 8 13 20 20 16
86 67 54 43 24 17 18 14 10 7 6 10 18 62 94 90 98 96 84 76 81 67 69 54 48 46 56 58 75 91 87 68 60 46 38 28 12 10 10 10 21 26 24
69 51 46 28 18 20 17 12 8 6 7 11 70 76 85 100 99 94 87 96 76 75 59 45 47 52 64 68 82 73 61 57 56 46 40 35 29 24 11 10 10 14 27
61 48 33 19 20 18 14 9 7 7 8 15 44 91 99 100 98 98 79 98 100 88 60 46 36 50 57 50 34 38 48 51 52 53 47 45 40 31 25 16 10 11 12
49 32 18 20 20 16 11 8 7 7 11 36 76 76 85 78 90 83 96 93 100 100 80 37 31 34 31 23 25 42 53 59 58 58 54 50 46 41 31 25 21 12 11
32 18 19 22 17 13 9 7 9 10 12 18 35 59 69 85 93 92 91 94 62 40 27 23 24 22 21 26 43 57 62 61 56 55 54 54 55 56 44 36 30 25 14
18 18 28 19 16 10 8 8 10 12 16 24 43 57 72 90 94 82 42 19 23 24 25 22 19 20 31 53 68 67 62 64 63 60 63 62 68 80 73 62 64 59 28
19 49 23 17 12 8 10 12 16 19 28 39 41 37 42 22 17 16 19 21 21 20 22 23 23 34 61 73 64 62 73 76 88 86 88 86 96 97 100 100 100 96 74
72 39 19 13 8 10 15 17 23 30 40 42 26 19 17 15 14 19 20 21 20 23 26 29 40 65 67 61 53 70 77 81 85 83 82 85 89 92 93 99 94 93 84
71 63 16 10 10 12 16 21 30 42 50 40 20 19 16 16 21 22 21 20 22 26 29 42 67 67 65 50 66 80 87 87 81 93 93 78 91 100 91 94 98 96 87
82 13 11 12 14 19 23 31 39 52 56 35 19 17 17 22 24 20 21 22 26 30 40 68 77 73 55 56 82 84 87 88 79 77 97 71 87 87 100 97 100 100 100
12 10 13 18 21 26 28 37 45 62 57 31 20 19 19 24 23 21 23 29 36 46 60 74 78 68 46 84 88 74 74 78 77 76 81 70 72 76 90 98 100 97 84
10 14 18 22 25 30 30 40 54 71 58 25 23 21 21 26 19 21 22 26 33 45 61 82 83 56 65 85 80 81 85 82 83 97 100 86 80 77 76 81 88 92 89
14 17 20 22 29 39 38 46 62 67 54 22 24 22 25 22 21 21 22 28 35 48 64 79 84 52 79 84 85 86 91 99 89 92 100 99 76 81 92 80 75 72 72
16 19 21 29 42 45 50 62 67 76 41 22 25 24 26 20 19 20 21 28 36 49 59 74 82 51 81 82 82 85 87 87 96 85 94 100 85 88 87 100 92 91 78

GFSMA_700_rhum_039.txt.gz
RH
52 53 62 72 79 97 91 88 80 51 40 36 34 33 30 25 22 24 26 24 20 18 16 14 13 12 11 11 10 9 8 8 8 10 12 14 13 15 19 26 28 26 25
63 69 74 86 84 100 83 79 44 36 33 32 32 31 29 29 29 28 26 22 19 16 15 14 13 12 12 11 11 10 9 7 6 6 6 8 10 11 11 13 19 26 29
77 75 81 77 85 78 58 38 36 36 38 37 35 31 28 27 26 23 20 18 16 15 14 13 12 11 11 11 11 10 10 9 8 6 5 6 5 6 7 9 12 20 25
74 71 70 78 66 44 36 39 40 42 41 38 36 34 29 25 22 19 18 16 15 14 14 13 12 11 10 10 10 10 10 9 9 8 8 7 6 5 5 5 6 10 19
68 67 74 58 37 37 42 42 43 45 43 40 34 29 24 22 20 18 17 15 14 13 12 11 10 9 9 9 9 8 8 8 8 8 8 7 7 7 6 6 6 7 8
77 67 43 36 41 45 50 52 51 41 38 34 29 24 23 20 18 16 14 12 11 11 12 12 10 9 9 8 8 10 13 20 16 12 10 8 7 7 6 7 8 7 11
40 35 42 49 51 52 56 46 42 42 39 32 26 24 21 18 15 12 10 9 9 11 19 32 31 29 28 40 52 57 50 40 20 14 11 8 11 11 7 5 6 10 9
44 55 62 59 62 62 54 50 48 45 37 25 25 23 19 16 12 9 6 7 9 13 24 43 67 97 99 93 88 62 23 17 17 16 14 14 14 14 15 15 10 6 12
68 68 66 68 64 65 60 54 48 39 25 25 22 18 14 11 9 8 6 8 14 23 29 23 22 31 47 49 43 30 16 12 12 11 11 10 11 11 10 11 18 24 11
78 79 74 75 67 67 56 50 40 24 25 23 17 11 8 5 6 6 12 18 30 52 54 41 19 28 45 42 33 22 13 16 14 12 11 10 9 13 15 14 12 32 40
68 72 79 84 69 58 51 42 26 24 24 17 11 7 5 5 7 15 16 32 66 82 74 53 66 59 56 53 33 22 28 26 21 14 13 14 12 13 21 36 35 11 13
90 94 95 75 60 51 35 23 20 21 17 10 7 5 5 7 22 42 68 71 84 77 58 59 60 63 54 43 40 42 37 28 29 28 29 25 22 24 21 20 40 20 30
92 97 100 78 54 39 22 20 24 20 12 8 6 4 5 10 49 71 84 85 80 73 63 55 60 61 57 47 35 26 18 17 18 23 26 32 36 39 35 29 20 12 13
99 98 98 91 53 29 22 24 23 14 8 6 5 5 7 33 80 89 100 98 90 79 45 55 58 59 44 25 18 15 16 18 18 17 27 40 46 43 42 37 26 22 12
99 100 98 85 61 21 23 24 16 9 6 6 6 8 11 29 77 88 82 84 100 92 46 62 54 31 23 21 19 19 20 19 20 29 39 47 49 47 46 44 37 28 21
98 98 98 85 24 26 28 18 10 7 7 8 11 12 17 39 72 82 92 83 95 88 77 56 21 19 19 19 20 21 22 27 40 54 53 49 49 48 46 45 43 37 32
97 96 94 35 37 29 24 12 7 8 10 12 13 16 26 42 51 56 58 71 83 74 27 18 20 20 20 20 21 23 36 58 62 58 54 51 51 51 51 48 48 49 43
98 80 17 52 46 47 31 8 8 10 12 15 18 24 35 38 29 20 16 16 16 20 22 20 17 18 19 22 33 53 63 57 51 53 58 60 72 94 100 94 79 80 86
86 19 61 74 84 51 9 8 9 13 16 20 26 36 38 32 17 14 14 17 21 21 19 19 20 22 26 44 63 64 60 48 56 60 64 75 75 77 77 96 91 100 100
67 81 90 84 26 17 10 12 14 16 21 26 36 49 41 26 16 14 14 20 20 17 19 22 23 26 38 65 70 60 48 63 63 65 70 74 69 74 81 85 78 98 99
77 91 63 61 48 12 13 20 20 23 31 35 48 53 32 20 16 14 21 20 16 18 19 22 23 28 56 71 62 49 63 62 55 60 69 65 74 70 73 84 92 88 97
95 94 92 40 27 21 20 28 29 36 47 47 59 54 29 19 16 19 22 16 18 19 21 25 29 43 62 72 50 64 70 66 53 65 68 61 74 68 66 71 80 93 100
95 88 83 80 28 16 20 32 36 45 56 61 68 57 30 18 18 25 19 18 20 28 37 44 46 60 72 67 56 74 73 78 74 88 88 69 88 71 67 60 72 96 99
92 81 59 29 22 20 26 37 42 51 64 77 76 55 27 19 21 24 17 18 19 24 33 44 54 70 80 57 76 80 70 64 70 86 100 70 74 72 71 74 73 79 89
88 71 50 24 25 27 30 43 48 52 78 89 78 51 22 24 24 22 17 18 19 24 37 52 64 80 80 55 86 80 69 68 67 71 86 85 74 73 70 81 97 83 76
63 30 25 29 32 32 42 52 56 64 79 78 74 40 22 25 28 21 18 18 18 20 30 45 60 81 78 54 88 86 70 74 70 80 100 87 74 85 67 74 100 100 100